Eau Claire, WI

11:25 AM CDT on October 21, 2017 (GMT -0500)
Chippewa Valley Regional

Weather History for KEAU - January, 2012

Change the Weather History Date:

Thursday, January 12, 2012

  Actual Average Record
Temperature  
Mean Temperature 14 °F 14 °F  
Max Temperature 16 °F 23 °F 47 °F (1987)
Min Temperature 11 °F 5 °F -36 °F (1912)
Degree Days  
Heating Degree Days 51 51  
Month to date heating degree days 470 607  
Since 1 July heating degree days 3223 3783  
Cooling Degree Days 0 0  
Month to date cooling degree days 0 0  
Year to date cooling degree days 0 0  
Moisture  
Dew Point 7 °F    
Average Humidity 76    
Maximum Humidity 84    
Minimum Humidity 67    
Precipitation  
Precipitation 0.14 in 0.03 in 0.49 in (1935)
Month to date precipitation 0.29 0.33  
Year to date precipitation 0.29 0.33  
Snow  
Snow 2.00 in 0.50 in 7.50 in (2000)
Month to date snowfall 3.8 4.7  
Since 1 July snowfall 11.9 20.5  
Snow Depth 1.00 in    
Sea Level Pressure  
Sea Level Pressure 29.73 in    
Wind  
Wind Speed 12 mph (NNW)    
Max Wind Speed 20 mph    
Max Gust Speed 25 mph    
Visibility 3 miles    
Events Snow    
T = Trace of Precipitation, MM = Missing Value Source: NWS Daily Summary

Daily Weather History Graph

Daily Weather History Graph

Search for Another Location

Airport or City:

Trip Planner

Search our weather history database for the weather conditions in past years. The results will help you decide how hot, cold, wet, or windy it might be!

Date:

Astronomy

Jan. 12, 2012 Rise Set
Actual Time 7:41 AM CST 4:46 PM CST
Civil Twilight 7:08 AM CST 5:19 PM CST
Nautical Twilight 6:32 AM CST 5:56 PM CST
Astronomical Twilight 5:57 AM CST 6:31 PM CST
Moon 9:05 PM CST (1/12) 9:14 AM CST (1/12)
Length of Visible Light 10h 10m
Length of Day
9h 04m
Waning Gibbous, 87% of the Moon is Illuminated
Jan 12
Waning Gibbous
Jan 16
Last Quarter
Jan 23
New
Jan 30
First Quarter
Feb 7
Full

Hourly Weather History & Observations

Time (CST) Temp. Windchill Dew Point Humidity Pressure Visibility Wind Dir Wind Speed Gust Speed Precip Events Conditions
12:36 AM 15.8 °F 3.4 °F 10.4 °F 79% 29.74 in 3.0 mi NW 10.4 mph - 0.00 in Snow Light Snow
12:45 AM 15.8 °F 2.1 °F 10.4 °F 79% 29.74 in 2.5 mi NNW 12.7 mph - 0.00 in Snow Light Snow
12:56 AM 15.1 °F 1.1 °F 10.0 °F 80% 29.77 in 2.0 mi NW 12.7 mph 18.4 mph 0.01 in Snow Light Snow
1:04 AM 15.8 °F 2.7 °F 10.4 °F 79% 29.73 in 1.5 mi NNW 11.5 mph 19.6 mph 0.00 in Snow Light Snow
1:37 AM 14.0 °F 1.2 °F 10.4 °F 86% 29.74 in 2.0 mi NNW 10.4 mph - 0.00 in Snow Light Snow
1:56 AM 14.0 °F 1.2 °F 9.0 °F 80% 29.78 in 2.0 mi NW 10.4 mph 19.6 mph 0.00 in Snow Light Snow
2:11 AM 14.0 °F -0.2 °F 8.6 °F 79% 29.74 in 1.5 mi NNW 12.7 mph - 0.00 in Snow Light Snow
2:56 AM 14.0 °F 3.9 °F 9.0 °F 80% 29.78 in 1.8 mi NW 6.9 mph - 0.00 in Snow Light Snow
3:22 AM 12.2 °F -2.5 °F 8.6 °F 85% 29.73 in 2.0 mi NW 12.7 mph - 0.00 in Snow Light Snow
3:29 AM 12.2 °F -1.0 °F 8.6 °F 85% 29.73 in 1.8 mi NW 10.4 mph - 0.00 in Snow Light Snow
3:56 AM 12.9 °F -0.2 °F 9.0 °F 84% 29.77 in 1.8 mi NNW 10.4 mph - 0.01 in Snow Light Snow
4:07 AM 12.2 °F -0.2 °F 8.6 °F 85% 29.72 in 2.5 mi NNW 9.2 mph - 0.00 in Snow Light Snow
4:56 AM 12.9 °F -2.2 °F 8.1 °F 81% 29.76 in 1.8 mi NNW 13.8 mph 20.7 mph 0.00 in Snow Light Snow
5:26 AM 12.2 °F -0.2 °F 8.6 °F 85% 29.72 in 2.0 mi NNW 9.2 mph 19.6 mph 0.00 in Snow Light Snow
5:38 AM 12.2 °F -0.2 °F 8.6 °F 85% 29.72 in 1.8 mi NNW 9.2 mph - 0.01 in Snow Light Snow
5:45 AM 12.2 °F 0.7 °F 8.6 °F 85% 29.72 in 2.5 mi NNW 8.1 mph - 0.01 in Snow Light Snow
5:54 AM 12.2 °F -1.8 °F 8.6 °F 85% 29.72 in 3.0 mi NNW 11.5 mph 17.3 mph 0.01 in Snow Light Snow
5:56 AM 12.9 °F -0.2 °F 8.1 °F 81% 29.77 in 2.5 mi NNW 10.4 mph 17.3 mph 0.01 in Snow Light Snow
6:46 AM 12.2 °F -3.1 °F 6.8 °F 79% 29.72 in 3.0 mi NNW 13.8 mph 20.7 mph 0.00 in Snow Light Snow
6:56 AM 12.0 °F -2.0 °F 7.0 °F 80% 29.77 in 2.5 mi NNW 11.5 mph - 0.00 in Snow Light Snow
7:10 AM 12.2 °F -2.5 °F 6.8 °F 79% 29.72 in 2.5 mi NNW 12.7 mph 18.4 mph 0.00 in Snow Light Snow
7:33 AM 12.2 °F -2.5 °F 6.8 °F 79% 29.72 in 1.5 mi NNW 12.7 mph - 0.00 in Snow Light Snow
7:56 AM 12.0 °F -1.3 °F 7.0 °F 80% 29.78 in 1.2 mi NW 10.4 mph - 0.00 in Snow Light Snow
8:52 AM 12.2 °F -0.2 °F 6.8 °F 79% 29.72 in 2.0 mi NNW 9.2 mph 20.7 mph 0.01 in Snow Light Snow
8:56 AM 12.0 °F -1.3 °F 6.1 °F 77% 29.77 in 2.0 mi NNW 10.4 mph - 0.01 in Snow Light Snow
9:07 AM 12.2 °F -1.0 °F 6.8 °F 79% 29.71 in 3.0 mi NNW 10.4 mph 20.7 mph 0.00 in Snow Light Snow
9:37 AM 12.2 °F -2.5 °F 6.8 °F 79% 29.71 in 1.8 mi NNW 12.7 mph 20.7 mph 0.00 in Snow Light Snow
9:56 AM 12.0 °F -0.4 °F 6.1 °F 77% 29.76 in 2.0 mi NNW 9.2 mph 20.7 mph 0.00 in Snow Light Snow
10:16 AM 12.2 °F -3.7 °F 6.8 °F 79% 29.70 in 4.0 mi NNW 15.0 mph 19.6 mph 0.00 in Snow Light Snow
10:42 AM 12.2 °F -3.7 °F 6.8 °F 79% 29.70 in 2.0 mi NNW 15.0 mph 20.7 mph 0.00 in Snow Light Snow
10:56 AM 12.2 °F -2.5 °F 5.0 °F 73% 29.70 in 3.0 mi NNW 12.7 mph 24.2 mph N/A Snow Light Snow
11:14 AM 12.2 °F -3.7 °F 5.0 °F 73% 29.69 in 2.0 mi NNW 15.0 mph 23.0 mph 0.00 in Snow Light Snow
11:22 AM 12.2 °F -2.5 °F 6.8 °F 79% 29.69 in 1.0 mi NNW 12.7 mph 19.6 mph 0.00 in Snow Light Snow
11:32 AM 12.2 °F 0.7 °F 6.8 °F 79% 29.69 in 0.8 mi NNW 8.1 mph 20.7 mph 0.00 in Snow Light Snow
11:41 AM 12.2 °F -3.1 °F 6.8 °F 79% 29.69 in 1.2 mi NNW 13.8 mph 19.6 mph 0.00 in Snow Light Snow
11:56 AM 12.0 °F -5.1 °F 6.1 °F 77% 29.74 in 1.2 mi NW 17.3 mph 23.0 mph 0.00 in Snow Light Snow
12:56 PM 12.9 °F -2.2 °F 7.0 °F 77% 29.71 in 1.2 mi NNW 13.8 mph 21.9 mph 0.00 in Snow Light Snow
1:30 PM 12.2 °F -3.7 °F 6.8 °F 79% 29.66 in 2.0 mi NNW 15.0 mph 24.2 mph 0.00 in Snow Light Snow
1:44 PM 12.2 °F -3.1 °F 6.8 °F 79% 29.66 in 3.0 mi NW 13.8 mph 19.6 mph 0.00 in Snow Light Snow
2:05 PM 12.2 °F -3.1 °F 6.8 °F 79% 29.66 in 2.0 mi NNW 13.8 mph 21.9 mph 0.00 in Snow Light Snow
2:12 PM 12.2 °F -2.5 °F 6.8 °F 79% 29.66 in 1.5 mi NNW 12.7 mph 23.0 mph 0.00 in Snow Light Snow
2:36 PM 12.2 °F -3.7 °F 6.8 °F 79% 29.67 in 2.5 mi NNW 15.0 mph 20.7 mph 0.00 in Snow Light Snow
2:45 PM 12.2 °F -4.8 °F 6.8 °F 79% 29.67 in 2.5 mi NNW 17.3 mph 24.2 mph 0.00 in Snow Light Snow
2:51 PM 12.2 °F -4.3 °F 6.8 °F 79% 29.68 in 3.0 mi NNW 16.1 mph 25.3 mph 0.00 in Snow Light Snow
2:52 PM 12.0 °F -5.1 °F 6.1 °F 77% 29.73 in 3.0 mi NNW 17.3 mph 25.3 mph 0.00 in Snow Light Snow
2:59 PM 12.2 °F -4.3 °F 5.0 °F 73% 29.68 in 1.8 mi NNW 16.1 mph 25.3 mph 0.00 in Snow Light Snow
3:49 PM 12.2 °F -1.8 °F 6.8 °F 79% 29.69 in 0.8 mi NNW 11.5 mph - 0.00 in Snow Light Snow
3:56 PM 12.2 °F -1.8 °F 6.8 °F 79% 29.69 in 1.0 mi NNW 11.5 mph 23.0 mph N/A Snow Light Snow
4:56 PM 12.0 °F -3.4 °F 6.1 °F 77% 29.76 in 2.0 mi NNW 13.8 mph - 0.00 in Snow Light Snow
5:00 PM 12.2 °F -1.8 °F 6.8 °F 79% 29.71 in 3.0 mi NNW 11.5 mph - 0.00 in Snow Light Snow
5:17 PM 12.2 °F -0.2 °F 6.8 °F 79% 29.71 in 2.5 mi NNW 9.2 mph - 0.00 in Snow Light Snow
5:56 PM 12.0 °F -2.0 °F 6.1 °F 77% 29.77 in 3.0 mi NNW 11.5 mph - 0.00 in Snow Light Snow
6:08 PM 12.2 °F -1.0 °F 6.8 °F 79% 29.72 in 3.0 mi NNW 10.4 mph - 0.00 in Snow Light Snow
6:39 PM 12.2 °F -1.0 °F 6.8 °F 79% 29.72 in 2.5 mi NNW 10.4 mph - 0.00 in Snow Light Snow
6:56 PM 12.0 °F -2.7 °F 6.1 °F 77% 29.78 in 3.0 mi NNW 12.7 mph 20.7 mph 0.01 in Snow Light Snow
7:07 PM 12.2 °F -4.3 °F 6.8 °F 79% 29.73 in 3.0 mi NNW 16.1 mph 21.9 mph 0.00 in Snow Light Snow
7:14 PM 12.2 °F -1.8 °F 6.8 °F 79% 29.73 in 2.5 mi NNW 11.5 mph 20.7 mph 0.00 in Snow Light Snow
7:26 PM 12.2 °F -2.5 °F 6.8 °F 79% 29.73 in 3.0 mi NNW 12.7 mph 21.9 mph 0.00 in Snow Light Snow
7:56 PM 12.0 °F -2.7 °F 5.0 °F 73% 29.79 in 4.0 mi NNW 12.7 mph 23.0 mph 0.00 in Snow Light Snow
8:56 PM 12.0 °F -2.7 °F 3.9 °F 70% 29.80 in 10.0 mi NNW 12.7 mph 24.2 mph 0.00 in   Overcast
9:56 PM 12.0 °F -3.4 °F 3.9 °F 70% 29.81 in 10.0 mi NNW 13.8 mph 24.2 mph N/A   Overcast
10:56 PM 12.0 °F -2.0 °F 5.0 °F 73% 29.81 in 10.0 mi NW 11.5 mph 19.6 mph 0.00 in   Overcast
11:56 PM 12.0 °F -4.0 °F 6.1 °F 77% 29.82 in 10.0 mi NNW 15.0 mph 21.9 mph N/A   Overcast